sat.trackr.live / text

‹ back to catalog

FORMOSAT 7-6

NORAD 44353 · 2019-036Q

PAYLOAD ACTIVE UNKNOWN

§ Identity

Operator
Country
ROC
Launch date
2019-06-25
Launch site
AFETR
Launch vehicle
Mass (kg)
RCS (m²)

External: N2YO · Heavens-Above · Gunter

§ Orbital elements

Epoch: 2026-05-25T00:29:16.315872Z

Period
96.23 min
Inclination
23.9965°
Eccentricity
0.0001137
Mean motion
14.96393120 rev/d
Perigee alt
577.3 km
Apogee alt
578.8 km
Semi-major
6,956.2 km
B*
1.4930e-4
RAAN
125.7992°
Arg perigee
173.3272°
Mean anomaly
186.7244°
Rev number
37,834

§ Raw data

FORMOSAT 7-61 44353U 19036Q   26145.02032773  .00002035  00000+0  14930-3 0  99992 44353  23.9965 125.7992 0001137 173.3272 186.7244 14.96393120378342

JSON: /api/v1/satellites/44353 · /tle

For live sub-satellite position, see the globe view (requires WebGL).

§ Visibility from observer

Set your observer location to see the next 7 days of passes ≥ 10°. The values pass through the URL so the page stays shareable.

No JS? Fill the form by hand. The geolocation button needs JavaScript.

§ Radio — SatNOGS DB

ModeDescriptionDownlinkUplink
CW Downlink 400.900 MHz

1 transmitter · refreshed weekly from db.satnogs.org